www.pogodaiklimat.ru

Погода и климат >> Архив погоды >> Россия >> Ленинградская область >> Сосново


ПОГОДА в Сосново

  • Прогноз погоды в Сосново
  • Монитор погоды в Сосново

АРХИВ ПОГОДЫ в Сосново

Время (UTC), дата Ветер
(напр.,м/с)
 
Видим.   Явления Облачность Т
(С)
Тd
(С)
f
(%)
Тe
(С)
Тes
(С)
Комфортность P
(гПа)
Po
(гПа)
Тmin
(С)
Tmax
(С)
R
(мм)
R24
(мм)
S
(см)
06 12.07 СЗ 1 50 км 9/3 1000 м
[Sc Ac trans]
+10.8 +6.8 76 +11 +13 1006.8 998.3 +5.9 0.0
09 12.07 СВ 1 50 км в посл. час ливневой дождь 9/8 800 м
[Cb cap Ac trans]
+10.4 +7.7 83 +10 +12 1006.7 998.2
12 12.07 Ю 1 50 км в посл. час ливневой дождь 9/8 870 м
[Cb cap Ac trans]
+12.9 +7.8 71 +13 +15 1006.5 998.1
15 12.07 ЮЗ 1 50 км в посл. час ливневой дождь 9/5 600 м
[Cb cap Ac trans]
+11.8 +8.8 82 +12 +13 1006.5 998.1 2
18 12.07 СЗ 1 50 км в посл. час ливневой дождь 9/6 1000 м
[Cb cap Ac trans]
+11.7 +9.1 84 +12 +12 1006.5 998.1 +13.8 2
21 12.07 СЗ 1 50 км 9/0
[Ac trans]
+10.4 +8.8 90 +10 +10 1006.5 998.0
00 13.07 З 1 50 км {ливн. осадки} 9/6
[Cb cap Ac trans]
+10.4 +8.6 89 +10 +10 1007.5 999.0
03 13.07 штиль 0 50 км 8/0
[Ac trans]
+8.2 +7.8 97 +7 +8 1006.5 998.0 +7.4 0.0
06 13.07 СВ 1 50 км {ливн. осадки} 10/10 420 м
[Cb cap]
+11.4 +9.6 89 +11 +11 1006.6 998.2 +7.4 0.7
09 13.07 С 1 50 км 9/9 720 м
[Cb cap]
+12.0 +9.2 83 +12 +13 1007.5 999.1
12 13.07 С 1 50 км 9/6 1000 м
[Cb cap Ci fib]
+13.7 +7.6 67 +14 +19 1008.1 999.7
15 13.07 С 1 50 км 9/6 600 м
[Cu Sc Ac trans]
+13.8 +6.6 62 +14 +15 1008.3 999.9 0.7
18 13.07 штиль 0 50 км 5/3 600 м
[Sc Ac trans Ci fib]
+13.3 +8.5 73 +13 +13 1008.9 1000.5 +15.3
21 13.07 Ю 1 50 км 3/0
[Ci fib]
+6.5 +5.6 94 +5 +5 1009.5 1000.8
00 14.07 ЮВ 1 50 км 1/0
[Ci fib]
+4.7 +4.0 95 +3 +3 1010.1 1001.4
03 14.07 штиль 0 50 км 3/0
[Ci fib]
+5.4 +4.9 97 +4 +5 1010.6 1001.9 +2.3
06 14.07 С 2 50 км 9/1 600 м
[Cu med, cong Ci fib]
+12.2 +7.5 73 +11 +16 1010.1 1001.7 +2.3
09 14.07 С 1 50 км 8/6 1000 м
[Cu med, cong Ci fib]
+15.2 +6.6 56 +16 +21 1010.4 1002.0
12 14.07 штиль 0 30 км в посл. час ливневой дождь 9/6 600 м
[Cb cap Ci fib]
+12.9 +10.6 86 +12 +18 1010.4 1002.0
15 14.07 С 1 50 км 6/5 600 м
[Cu med, cong Ac trans Ci fib]
+16.5 +6.8 53 +17 +20 1011.1 1001.9 4
18 14.07 штиль 0 50 км 6/1 1000 м
[Cb cap Ac trans]
+15.2 +9.2 67 +15 +15 1010.8 1002.4 +17.4 4
21 14.07 штиль 0 50 км 9/0
[Ac trans]
+8.6 +7.8 95 +8 +8 1011.0 1002.5
00 15.07 ЮВ 1 50 км 9/0
[Ac trans]
+9.0 +8.4 96 +8 +8 1010.8 1002.3
03 15.07 штиль 0 50 км 9/0
[Ac trans]
+9.5 +8.5 93 +9 +9 1010.7 1002.2 +8.0
06 15.07 Ю 1 50 км 9/0
[Ac trans]
+15.1 +9.9 71 +16 +19 1010.6 1002.2 +8.0
09 15.07 Ю 1 50 км 9/6 600 м
[Cb cap Ac trans]
+16.2 +8.8 62 +17 +20 1010.6 1002.2
12 15.07 Ю 2 50 км {ливн. осадки} 8/4 600 м
[Cb cap Ac trans Ci fib]
+16.2 +10.4 68 +16 +21 1011.1 1002.9
15 15.07 З 1 50 км 9/4 600 м
[Cb cap Ac trans Ci fib]
+17.4 +8.0 54 +18 +20 1010.8 1002.6 0.4
18 15.07 штиль 0 50 км 8/1 1000 м
[Sc diur, vesp Ac trans Ci fib]
+14.4 +11.2 81 +14 +14 1010.9 1002.5 +18.8 0.4
21 15.07 ЮВ 1 50 км 3/0
[Ac trans Ci fib]
+10.0 +9.2 95 +9 +9 1011.0 1002.5
00 16.07 ЮВ 1 50 км 3/0
[Ci fib]
+5.8 +5.6 99 +4 +4 1011.2 1002.5
03 16.07 штиль 0 50 км 1/0
[Ci fib]
+5.6 +5.1 97 +4 +6 1011.4 1002.7 +4.5
06 16.07 ЮВ 2 50 км ясно +17.0 +8.7 58 +17 +24 1009.8 1001.6 +4.3
09 16.07 ЮВ 2 50 км 5/5 600 м
[Cu med, cong]
+20.4 +7.6 44 +22 +29 комфорт 1010.1 1001.9
12 16.07 СВ 3 50 км 5/3 1000 м
[Cu med, cong Ci fib]
+20.8 +10.1 50 +23 +29 комфорт 1009.9 1001.7
15 16.07 СВ 1 50 км 3/0
[Ci fib]
+19.4 +8.2 48 +21 +26 комфорт 1009.8 1001.6
18 16.07 СВ 1 50 км 3/0
[Ci fib]
+17.8 +10.3 61 +19 +19 1009.9 1001.7 +22.1
21 16.07 штиль 0 50 км 4/0
[Ci fib]
+11.1 +9.9 92 +10 +10 1010.2 1001.7
00 17.07 штиль 0 50 км 9/0
[Ci fib]
+8.6 +7.8 95 +8 +8 1009.6 1001.1
03 17.07 штиль 0 50 км 9/0
[Ac trans Ci fib]
+8.4 +7.3 93 +7 +8 1009.7 1001.2 +6.9
06 17.07 СВ 2 50 км 9/1 600 м
[Cu hum Ac trans]
+17.0 +12.7 76 +17 +20 1009.6 1001.4 +6.9
09 17.07 В 1 50 км 9/3 600 м
[Cu hum Ac trans Ci fib]
+18.0 +11.0 64 +19 +25 1009.7 1001.5
12 17.07 СВ 2 50 км 9/3 600 м
[Cb cap Ac trans]
+19.1 +11.5 61 +21 +24 комфорт 1010.4 1002.2
15 17.07 СВ 2 50 км 9/1 600 м
[Cb cap Ac trans Ci fib]
+18.9 +10.8 59 +20 +22 1009.8 1001.6
18 17.07 СВ 1 50 км {ливн. осадки} 10/10 1230 м
[Sc diur, vesp]
+15.8 +13.7 87 +16 +16 1008.9 1000.7 +20.2 0.0
21 17.07 СВ 1 50 км 10/10 600 м
[Sc]
+15.3 +14.1 93 +16 +16 1008.7 1000.3
00 18.07 СВ 1 10 км слаб. дождь 10/10 300 м
[Frnb Ns]
+15.3 +14.4 94 +16 +16 1008.3 999.9
03 18.07 С 1 12 км {дождь} 10/10 240 м
[St]
+14.9 +14.7 99 +15 +15 1008.2 999.8 +14.1 0.6
06 18.07 СВ 1 1500 м слаб. дождь 10/10 210 м
[Frnb Ns]
+14.8 +14.6 99 +15 +15 1008.2 999.3 +14.6 5
09 18.07 СВ 2 50 км {дождь} 10/10 500 м
[Sc]
+16.2 +15.0 93 +16 +16 1007.7 999.5
12 18.07 СВ 2 45 км слаб. ливневой дождь 10/10 300 м
[Cb cap]
+15.8 +15.1 96 +16 +16 1007.3 999.1
15 18.07 С 3 15 км слаб. ливневой дождь 10/10 360 м
[Cb cap]
+15.2 +14.9 98 +14 +14 1006.6 998.2 10
18 18.07 С 2 15 км ливневой дождь 10/10 360 м
[Cb cap]
+15.1 +14.8 98 +15 +15 1005.8 997.4 +16.5 12
21 18.07 С 2 50 км в посл. час дождь {ливн. осадки} 10/10 210 м
[St]
+14.7 +14.3 97 +14 +14 1005.6 997.2
00 19.07 С 2 10 км слаб. дождь 10/10 180 м
[Frnb Ns]
+14.6 +14.4 99 +14 +14 1005.5 997.1
03 19.07 С 2 3300 м дымка {дождь} 10/10 180 м
[St]
+14.4 +14.2 99 +14 +14 1005.3 996.9 +14.4 19

 

Местоположение метеостанции Сосново (Ленинградская область, Россия): широта 60.55 долгота 30.32 высота над уровнем моря 70 м.

В архиве по умолчанию представлена погода в Сосново за последнюю неделю. Архивные данные за месяц целиком и за предыдущие месяцы, начиная с января 2011 года, Вы можете получить, выбрав интересующий диапазон дат из раскрывающегося списка и нажав кнопку "Ввод!".


*Определитесь, кто Вы:
робот инопланетянин человек

Внимание! Время в таблицах - всемирное. Для получения местного времени необходимо прибавить поправку, которая равна 3 ч.

Смотрите также архив погоды в соседних городах и на ближайших метеорологических станциях:

Погода в Рощино (Ленинградская область, Россия) (51 км)
Погода в Лисьем Носу (город Санкт-Петербург, Россия) (62 км)
Погода в Санкт-Петербурге (город Санкт-Петербург, Россия) (65 км)
Погода в Воейково (город Санкт-Петербург, Россия) (70 км)
Погода в Кронштадте (город Санкт-Петербург, Россия) (71 км)
Погода в Ломоносове (город Санкт-Петербург, Россия) (76 км)
Погода в Шлиссельбурге (Ленинградская область, Россия) (79 км)
Погода в Озерках (Ленинградская область, Россия) (82 км)
Погода в Выборге (Ленинградская область, Россия) (89 км)
Погода в Лесогорском (Ленинградская область, Россия) (92 км)

Пояснения к столбцам:

Ветер - указаны скорость ветра в м/с - средняя за 10 мин, порывы в срок и между сроками (в фигурных скобках) и направление, откуда дует ветер: С - северный, СВ - северо-восточный, В - восточный, ЮВ - юго-восточный, Ю - южный, ЮЗ - юго-западный, З - западный, СЗ - северо-западный.
Видимость - горизонтальная дальность видимости в метрах или километрах. При видимости от 1 до 10 км при отсутствии осадков обычно наблюдается дымка, при ухудшении видимости до 1 км и менее - туман. В сухую погоду видимость может ухудшаться дымом, пылью или мглою.
Явления - указаны атмосферные явления, наблюдавшиеся в срок или в последний час перед сроком; фигурными скобками обозначены явления, наблюдавшиеся между сроками (за 1-3 часа до срока); квадратными скобками обозначены град или гололедные отложения с указанием их диаметра в мм.
Облачность - указаны через наклонную черту общая и нижняя облачность в баллах и высота нижней границы облаков в метрах; квадратными скобками обозначены формы облаков: Ci - перистые, Cs - перисто-слоистые, Cc - перисто-кучевые, Ac - высококучевые, As - высокослоистые, Sc - слоисто-кучевые, Ns - слоисто-дождевые, Cu - кучевые, Cb - кучево-дождевые. Подробнее классификацию облаков см. в Атласе облаков (PDF).
T - Температура воздуха - температура, измеренная на высоте 2 м над землей.
Td - Температура точки росы - температура, при понижении до которой содержащийся в воздухе водяной пар достигнет насыщения.
f - Относительная влажность воздуха - влажноcть воздуха, измеренная на высоте 2 м над землей.
Te - Эффективная температура - температура, которую ощущает одетый по сезону человек в тени. Характеристика душности погоды. При расчете учитывается влияние влажности воздуха и скорости ветра на теплоощущения человека.
Tes - Эффективная температура на солнце - температура, которую ощущает человек, с поправкой на солнечный нагрев. Характеристика знойности погоды. Зависит от высоты солнца над горизонтом, облачности и скорости ветра. Ночью, в пасмурную погоду, а также при ветре 12 м/с и более поправка равна нулю.
P - Атмосферное давление - приведенное к уровню моря атмосферное давление.
Po - Атмосферное давление - измеренное на уровне метеостанции атмосферное давление.
Tmin - Минимальная температура - минимум температуры воздуха на высоте 2 м над землей.
Tmax - Максимальная температура - максимум температуры воздуха на высоте 2 м над землей.
R - Количество осадков - Количество выпавших осадков за период времени, мм. При наведении курсора мыши на число - период времени, за который выпало указанное количество осадков.
R24 - Количество осадков - Количество выпавших осадков за 24 часа, мм.
S - Снежный покров - Высота снежного покрова, см. При наведении курсора мыши на число - состояние снежного покрова и степень покрытия местности в баллах.